Year,Month,Day,Hour,Minute,Value (Times are PST for temperature in C)
2010,10,18,08,44,8.20
2010,10,18,08,45,8.30
2010,10,18,08,46,8.30
2010,10,18,08,47,8.30
2010,10,18,08,48,8.30
2010,10,18,08,49,8.40
2010,10,18,08,50,8.40
2010,10,18,08,51,8.40
2010,10,18,08,52,8.40
2010,10,18,08,53,8.50
2010,10,18,08,54,8.50
2010,10,18,08,55,8.60
2010,10,18,08,56,8.60
2010,10,18,08,57,8.60
2010,10,18,08,58,8.60
2010,10,18,08,59,8.60
2010,10,18,09,00,8.60
2010,10,18,09,01,8.60
2010,10,18,09,02,8.60
2010,10,18,09,03,8.70
2010,10,18,09,04,8.70
2010,10,18,09,05,8.70
2010,10,18,09,06,8.70
2010,10,18,09,07,8.70
2010,10,18,09,08,8.70
2010,10,18,09,09,8.70
2010,10,18,09,10,8.80
2010,10,18,09,11,8.80
2010,10,18,09,12,8.80
2010,10,18,09,13,8.80
2010,10,18,09,14,8.80
2010,10,18,09,15,8.70
2010,10,18,09,16,8.70
2010,10,18,09,17,8.70
2010,10,18,09,18,8.70
2010,10,18,09,19,8.70
2010,10,18,09,20,8.70
2010,10,18,09,21,8.80
2010,10,18,09,22,8.80
2010,10,18,09,23,8.80
2010,10,18,09,24,8.80
2010,10,18,09,25,8.80
2010,10,18,09,26,8.80
2010,10,18,09,27,8.90
2010,10,18,09,28,8.90
2010,10,18,09,29,8.90
2010,10,18,09,30,8.90
2010,10,18,09,31,8.90
2010,10,18,09,32,9.00
2010,10,18,09,33,9.00
2010,10,18,09,34,9.00
2010,10,18,09,35,9.10
2010,10,18,09,36,9.10
2010,10,18,09,37,9.10
2010,10,18,09,38,9.10
2010,10,18,09,39,9.20
2010,10,18,09,40,9.20
2010,10,18,09,41,9.20
2010,10,18,09,42,9.30
2010,10,18,09,43,9.30
2010,10,18,09,44,9.30
2010,10,18,09,45,9.30
2010,10,18,09,46,9.40
2010,10,18,09,47,9.40
2010,10,18,09,48,9.40
2010,10,18,09,49,9.50
2010,10,18,09,50,9.50
2010,10,18,09,51,9.60
2010,10,18,09,52,9.60
2010,10,18,09,53,9.60
2010,10,18,09,54,9.70
2010,10,18,09,55,9.70
2010,10,18,09,56,9.70
2010,10,18,09,57,9.70
2010,10,18,09,58,9.80
2010,10,18,09,59,9.80
2010,10,18,10,00,9.80
2010,10,18,10,01,9.80
2010,10,18,10,02,9.90
2010,10,18,10,03,9.90
2010,10,18,10,04,9.90
2010,10,18,10,05,9.90
2010,10,18,10,06,9.90
2010,10,18,10,07,9.90
2010,10,18,10,08,9.90
2010,10,18,10,09,10.00
2010,10,18,10,10,10.00
2010,10,18,10,11,10.00
2010,10,18,10,12,10.00
2010,10,18,10,13,10.00
2010,10,18,10,14,10.00
2010,10,18,10,15,10.00
2010,10,18,10,16,10.00
2010,10,18,10,17,10.00
2010,10,18,10,18,10.10
2010,10,18,10,19,10.10
2010,10,18,10,20,10.10
2010,10,18,10,21,10.10
2010,10,18,10,22,10.10
2010,10,18,10,23,10.10
2010,10,18,10,24,10.10
2010,10,18,10,25,10.10
2010,10,18,10,26,10.10
2010,10,18,10,27,10.10
2010,10,18,10,28,10.10
2010,10,18,10,29,10.10
2010,10,18,10,30,10.10
2010,10,18,10,31,10.10
2010,10,18,10,32,10.00
2010,10,18,10,33,10.00
2010,10,18,10,34,10.00
2010,10,18,10,35,10.00
2010,10,18,10,36,10.00
2010,10,18,10,37,10.00
2010,10,18,10,38,10.00
2010,10,18,10,39,10.00
2010,10,18,10,40,10.00
2010,10,18,10,41,10.10
2010,10,18,10,42,10.10
2010,10,18,10,43,10.10
2010,10,18,10,44,10.00
2010,10,18,10,45,10.00
2010,10,18,10,46,10.10
2010,10,18,10,47,10.10
2010,10,18,10,48,10.10
2010,10,18,10,49,10.10
2010,10,18,10,50,10.10
2010,10,18,10,51,10.10
2010,10,18,10,52,10.10
2010,10,18,10,53,10.10
2010,10,18,10,54,10.10
2010,10,18,10,55,10.10
2010,10,18,10,56,10.10
2010,10,18,10,57,10.10
2010,10,18,10,58,10.10
2010,10,18,10,59,10.10
2010,10,18,11,00,10.10
2010,10,18,11,01,10.10
2010,10,18,11,02,10.10
2010,10,18,11,03,10.10
2010,10,18,11,04,10.10
2010,10,18,11,05,10.20
2010,10,18,11,06,10.20
2010,10,18,11,07,10.20
2010,10,18,11,08,10.20
2010,10,18,11,09,10.20
2010,10,18,11,10,10.20
2010,10,18,11,11,10.20
2010,10,18,11,12,10.20
2010,10,18,11,13,10.30
2010,10,18,11,14,10.30
2010,10,18,11,15,10.30
2010,10,18,11,16,10.30
2010,10,18,11,17,10.30
2010,10,18,11,18,10.30
2010,10,18,11,19,10.30
2010,10,18,11,20,10.30
2010,10,18,11,21,10.30
2010,10,18,11,22,10.40
2010,10,18,11,23,10.40
2010,10,18,11,24,10.40
2010,10,18,11,25,10.40
2010,10,18,11,26,10.40
2010,10,18,11,27,10.40
2010,10,18,11,28,10.40
2010,10,18,11,29,10.40
2010,10,18,11,30,10.40
2010,10,18,11,31,10.40
2010,10,18,11,32,10.40
2010,10,18,11,33,10.40
2010,10,18,11,34,10.40
2010,10,18,11,35,10.40
2010,10,18,11,36,10.40
2010,10,18,11,37,10.40
2010,10,18,11,38,10.40
2010,10,18,11,39,10.40
2010,10,18,11,40,10.40
2010,10,18,11,41,10.40
2010,10,18,11,42,10.40
2010,10,18,11,43,10.40
2010,10,18,11,44,10.30
2010,10,18,11,45,10.30
2010,10,18,11,46,10.30
2010,10,18,11,47,10.30
2010,10,18,11,48,10.40
2010,10,18,11,49,10.30
2010,10,18,11,50,10.40
2010,10,18,11,51,10.40
2010,10,18,11,52,10.40
2010,10,18,11,53,10.40
2010,10,18,11,54,10.40
2010,10,18,11,55,10.40
2010,10,18,11,56,10.40
2010,10,18,11,57,10.40
2010,10,18,11,58,10.40
2010,10,18,11,59,10.40
2010,10,18,12,00,10.40
2010,10,18,12,01,10.40
2010,10,18,12,02,10.40
2010,10,18,12,03,10.50
2010,10,18,12,04,10.50
2010,10,18,12,05,10.50
2010,10,18,12,06,10.50
2010,10,18,12,07,10.60
2010,10,18,12,08,10.60
2010,10,18,12,09,10.60
2010,10,18,12,10,10.60
2010,10,18,12,11,10.60
2010,10,18,12,12,10.60
2010,10,18,12,13,10.60
2010,10,18,12,14,10.60
2010,10,18,12,15,10.60
2010,10,18,12,16,10.60
2010,10,18,12,17,10.60
2010,10,18,12,18,10.60
2010,10,18,12,19,10.60
2010,10,18,12,20,10.60
2010,10,18,12,21,10.60
2010,10,18,12,22,10.60
2010,10,18,12,23,10.70
2010,10,18,12,24,10.70
2010,10,18,12,25,10.70
2010,10,18,12,26,10.70
2010,10,18,12,27,10.70
2010,10,18,12,28,10.70
2010,10,18,12,29,10.70
2010,10,18,12,30,10.70
2010,10,18,12,31,10.70
2010,10,18,12,32,10.70
2010,10,18,12,33,10.70
2010,10,18,12,34,10.70
2010,10,18,12,35,10.70
2010,10,18,12,36,10.70
2010,10,18,12,37,10.70
2010,10,18,12,38,10.70
2010,10,18,12,39,10.70
2010,10,18,12,40,10.70
2010,10,18,12,41,10.70
2010,10,18,12,42,10.70
2010,10,18,12,43,10.70
2010,10,18,12,44,10.70
2010,10,18,12,45,10.70
2010,10,18,12,46,10.70
2010,10,18,12,47,10.70
2010,10,18,12,48,10.70
2010,10,18,12,49,10.70
2010,10,18,12,50,10.70
2010,10,18,12,51,10.70
2010,10,18,12,52,10.70
2010,10,18,12,53,10.70
2010,10,18,12,54,10.70
2010,10,18,12,55,10.70
2010,10,18,12,56,10.70
2010,10,18,12,57,10.70
2010,10,18,12,58,10.70
2010,10,18,12,59,10.70
2010,10,18,13,00,10.70
2010,10,18,13,01,10.70
2010,10,18,13,02,10.70
